,,,PA_Meas_PMT16A,,PR_Meas_QMR101_102,,RH_Meas_QMH101,,SR_Meas_QMS101,,TA_Meas_QMH101,,GenWind,,GenWind,
date,time,status,PA,status,PR,status,RH,status,SR,status,TA,status,DirAvg,status,SpdAvg,
2012-04-20, 00:00:04,VALID,999.606,VALID,0,VALID,93.7528,VALID,0,VALID,24.0311,VALID,312,VALID,0.542969,
2012-04-20, 00:01:04,VALID,999.613,VALID,0,VALID,93.7528,VALID,0,VALID,24.0329,VALID,312,VALID,0.532812,
2012-04-20, 00:02:04,VALID,999.569,VALID,0,VALID,93.7604,VALID,0,VALID,24.0134,VALID,312,VALID,0.384375,
2012-04-20, 00:03:04,VALID,999.563,VALID,0,VALID,93.8214,VALID,0,VALID,24.0134,VALID,312,VALID,0.383984,
2012-04-20, 00:04:04,VALID,999.527,VALID,0,VALID,93.8672,VALID,0,VALID,24.0134,VALID,312,VALID,0.255078,
2012-04-20, 00:05:04,VALID,999.521,VALID,0,VALID,93.9054,VALID,0,VALID,24.0134,VALID,312,VALID,0.166406,
2012-04-20, 00:06:04,VALID,999.497,VALID,0,VALID,93.9283,VALID,0,VALID,24.0329,VALID,312,VALID,0,
2012-04-20, 00:07:04,VALID,999.512,VALID,0,VALID,93.9206,VALID,0,VALID,24.0329,VALID,312,VALID,0,
2012-04-20, 00:08:04,VALID,999.51,VALID,0,VALID,93.9054,VALID,0,VALID,24.0134,VALID,312,VALID,0.260938,
2012-04-20, 00:09:04,VALID,999.475,VALID,0,VALID,93.8825,VALID,0,VALID,23.9921,VALID,312,VALID,0.505469,
2012-04-20, 00:10:04,VALID,999.482,VALID,0,VALID,93.8596,VALID,0,VALID,24.0134,VALID,312,VALID,0.605469,
2012-04-20, 00:11:04,VALID,999.458,VALID,0,VALID,93.852,VALID,0,VALID,24.0116,VALID,69,VALID,0.844531,
2012-04-20, 00:12:04,VALID,999.502,VALID,0,VALID,93.8214,VALID,0,VALID,24.0525,VALID,69,VALID,0.99375,
2012-04-20, 00:13:04,VALID,999.517,VALID,0,VALID,93.7833,VALID,0,VALID,24.0701,VALID,69,VALID,1.00664,
2012-04-20, 00:14:04,VALID,999.504,VALID,0,VALID,93.7757,VALID,0,VALID,24.0915,VALID,69,VALID,0.925,
2012-04-20, 00:15:04,VALID,999.53,VALID,0,VALID,93.6994,VALID,0,VALID,24.111,VALID,69,VALID,1.11055,
2012-04-20, 00:16:04,VALID,999.53,VALID,0,VALID,93.6841,VALID,0,VALID,24.111,VALID,69,VALID,1.23281,
2012-04-20, 00:17:04,VALID,999.519,VALID,0,VALID,93.6536,VALID,0,VALID,24.1305,VALID,69,VALID,0.986719,
2012-04-20, 00:18:04,VALID,999.501,VALID,0,VALID,93.646,VALID,0,VALID,24.1092,VALID,69,VALID,0.958594,
2012-04-20, 00:19:04,VALID,999.475,VALID,0,VALID,93.6536,VALID,0,VALID,24.111,VALID,69,VALID,0.771094,
2012-04-20, 00:20:04,VALID,999.468,VALID,0,VALID,93.6307,VALID,0,VALID,24.15,VALID,69,VALID,0.668359,
2012-04-20, 00:21:04,VALID,999.457,VALID,0,VALID,93.6688,VALID,0,VALID,24.1305,VALID,69,VALID,0.585156,
2012-04-20, 00:22:04,VALID,999.425,VALID,0,VALID,93.7223,VALID,0,VALID,24.15,VALID,69,VALID,0.359375,
2012-04-20, 00:23:04,VALID,999.429,VALID,0,VALID,93.7604,VALID,0,VALID,24.15,VALID,69,VALID,0.376953,
2012-04-20, 00:24:04,VALID,999.371,VALID,0,VALID,93.7909,VALID,0,VALID,24.1891,VALID,69,VALID,0.316016,
2012-04-20, 00:25:04,VALID,999.35,VALID,0,VALID,93.768,VALID,0,VALID,24.1891,VALID,69,VALID,0.438672,
2012-04-20, 00:26:04,VALID,999.317,VALID,0,VALID,93.7451,VALID,0,VALID,24.1872,VALID,69,VALID,0.359375,
2012-04-20, 00:27:04,VALID,999.274,VALID,0,VALID,93.7451,VALID,0,VALID,24.2086,VALID,69,VALID,0,
2012-04-20, 00:28:04,VALID,999.23,VALID,0,VALID,93.7375,VALID,0,VALID,24.1677,VALID,69,VALID,0,
2012-04-20, 00:29:04,VALID,999.214,VALID,0,VALID,93.6994,VALID,0,VALID,24.1872,VALID,69,VALID,0.0015625,
2012-04-20, 00:30:04,VALID,999.184,VALID,0,VALID,93.6917,VALID,0,VALID,24.1891,VALID,69,VALID,0.233203,
2012-04-20, 00:31:04,VALID,999.161,VALID,0,VALID,93.6841,VALID,0,VALID,24.1677,VALID,69,VALID,0.249609,
2012-04-20, 00:32:04,VALID,999.12,VALID,0,VALID,93.6536,VALID,0,VALID,24.1677,VALID,69,VALID,0.283594,
2012-04-20, 00:33:04,VALID,999.103,VALID,0,VALID,93.5926,VALID,0,VALID,24.1891,VALID,69,VALID,0.188281,
2012-04-20, 00:34:04,VALID,999.129,VALID,0,VALID,93.501,VALID,0,VALID,24.1872,VALID,69,VALID,0.158984,
2012-04-20, 00:35:04,VALID,999.148,VALID,0,VALID,93.4781,VALID,0,VALID,24.1872,VALID,69,VALID,0.246484,
2012-04-20, 00:36:04,VALID,999.16,VALID,0,VALID,93.4476,VALID,0,VALID,24.1891,VALID,69,VALID,0.448828,
2012-04-20, 00:37:04,VALID,999.165,VALID,0,VALID,93.4018,VALID,0.104696,VALID,24.2067,VALID,69,VALID,0.678906,
2012-04-20, 00:38:04,VALID,999.143,VALID,0,VALID,93.3179,VALID,0,VALID,24.2067,VALID,69,VALID,0.588672,
2012-04-20, 00:39:04,VALID,999.174,VALID,0,VALID,93.2721,VALID,0,VALID,24.2263,VALID,69,VALID,0.661328,
2012-04-20, 00:40:04,VALID,999.205,VALID,0,VALID,93.2187,VALID,0,VALID,24.2458,VALID,69,VALID,0.967578,
2012-04-20, 00:41:04,VALID,999.189,VALID,0,VALID,93.2263,VALID,0,VALID,24.2458,VALID,69,VALID,0.751953,
2012-04-20, 00:42:04,VALID,999.199,VALID,0,VALID,93.2416,VALID,0,VALID,24.2476,VALID,69,VALID,0.628906,
2012-04-20, 00:43:04,VALID,999.204,VALID,0,VALID,93.2721,VALID,0,VALID,24.2458,VALID,69,VALID,0.605859,
2012-04-20, 00:44:04,VALID,999.238,VALID,0,VALID,93.2874,VALID,0,VALID,24.2476,VALID,69,VALID,0.425,
2012-04-20, 00:45:04,VALID,999.209,VALID,0,VALID,93.3026,VALID,0,VALID,24.2281,VALID,69,VALID,0.00585938,
2012-04-20, 00:46:04,VALID,999.158,VALID,0,VALID,93.3255,VALID,0,VALID,24.2067,VALID,69,VALID,0.237891,
2012-04-20, 00:47:04,VALID,999.211,VALID,0,VALID,93.3103,VALID,0,VALID,24.2086,VALID,69,VALID,0,
2012-04-20, 00:48:04,VALID,999.169,VALID,0,VALID,93.2874,VALID,0,VALID,24.1872,VALID,69,VALID,0,
2012-04-20, 00:49:04,VALID,999.13,VALID,0,VALID,93.295,VALID,0,VALID,24.1677,VALID,69,VALID,0,
2012-04-20, 00:50:04,VALID,999.099,VALID,0,VALID,93.3026,VALID,0,VALID,24.1482,VALID,69,VALID,0,
2012-04-20, 00:51:04,VALID,999.051,VALID,0,VALID,93.356,VALID,0,VALID,24.15,VALID,69,VALID,0.214453,
2012-04-20, 00:52:04,VALID,999.011,VALID,0,VALID,93.3942,VALID,0,VALID,24.1287,VALID,69,VALID,0.448438,
2012-04-20, 00:53:04,VALID,999.003,VALID,0,VALID,93.4705,VALID,0,VALID,24.1287,VALID,69,VALID,0.666406,
2012-04-20, 00:54:04,VALID,998.988,VALID,0,VALID,93.5086,VALID,0,VALID,24.1287,VALID,321,VALID,0.652734,
2012-04-20, 00:55:04,VALID,999.001,VALID,0,VALID,93.5849,VALID,0,VALID,24.15,VALID,321,VALID,0.605469,
2012-04-20, 00:56:04,VALID,999.002,VALID,0,VALID,93.5926,VALID,0,VALID,24.1305,VALID,321,VALID,0.494141,
2012-04-20, 00:57:04,VALID,999.019,VALID,0,VALID,93.6612,VALID,0,VALID,24.1287,VALID,321,VALID,0.362109,
2012-04-20, 00:58:04,VALID,998.99,VALID,0,VALID,93.6765,VALID,0,VALID,24.1287,VALID,321,VALID,0.340234,
2012-04-20, 00:59:04,VALID,999.006,VALID,0,VALID,93.6917,VALID,0,VALID,24.1287,VALID,321,VALID,0.0800781,
2012-04-20, 01:00:04,VALID,998.995,VALID,0,VALID,93.6383,VALID,0,VALID,24.1305,VALID,321,VALID,0,
2012-04-20, 01:01:04,VALID,998.914,VALID,0,VALID,93.5849,VALID,0,VALID,24.0897,VALID,321,VALID,0,
2012-04-20, 01:02:04,VALID,998.964,VALID,0,VALID,93.5086,VALID,0,VALID,24.111,VALID,321,VALID,0,
2012-04-20, 01:03:04,VALID,998.932,VALID,0,VALID,93.4705,VALID,0,VALID,24.0701,VALID,321,VALID,0.246484,
2012-04-20, 01:04:04,VALID,998.939,VALID,0,VALID,93.4171,VALID,0,VALID,24.0897,VALID,238,VALID,0.729688,
2012-04-20, 01:05:04,VALID,998.915,VALID,0,VALID,93.3484,VALID,0,VALID,24.1092,VALID,200,VALID,0.7,
2012-04-20, 01:06:04,VALID,998.923,VALID,0,VALID,93.234,VALID,0,VALID,24.1287,VALID,176,VALID,1.0625,
2012-04-20, 01:07:04,VALID,998.924,VALID,0,VALID,93.1424,VALID,0,VALID,24.1482,VALID,153,VALID,1.26797,
2012-04-20, 01:08:04,VALID,998.914,VALID,0,VALID,93.089,VALID,0,VALID,24.1891,VALID,150,VALID,1.05469,
2012-04-20, 01:09:04,VALID,998.881,VALID,0,VALID,92.9974,VALID,0,VALID,24.2067,VALID,150,VALID,0.864062,
2012-04-20, 01:10:04,VALID,998.882,VALID,0,VALID,92.9135,VALID,0,VALID,24.2067,VALID,150,VALID,0.641797,
2012-04-20, 01:11:04,VALID,998.875,VALID,0,VALID,92.883,VALID,0,VALID,24.2263,VALID,150,VALID,0.578125,
2012-04-20, 01:12:04,VALID,998.872,VALID,0,VALID,92.8677,VALID,0,VALID,24.2476,VALID,150,VALID,0.441406,
2012-04-20, 01:13:04,VALID,998.881,VALID,0,VALID,92.8677,VALID,0,VALID,24.2263,VALID,150,VALID,0.669531,
2012-04-20, 01:14:04,VALID,998.812,VALID,0,VALID,92.8754,VALID,0,VALID,24.2067,VALID,150,VALID,0.575,
2012-04-20, 01:15:04,VALID,998.805,VALID,0,VALID,92.8296,VALID,0,VALID,24.2067,VALID,150,VALID,0.574609,
2012-04-20, 01:16:04,VALID,998.775,VALID,0,VALID,92.7762,VALID,0,VALID,24.2281,VALID,150,VALID,0.626953,
2012-04-20, 01:17:04,VALID,998.752,VALID,0,VALID,92.6999,VALID,0,VALID,24.2086,VALID,150,VALID,0,
2012-04-20, 01:18:04,VALID,998.688,VALID,0,VALID,92.7228,VALID,0,VALID,24.2086,VALID,150,VALID,0,
2012-04-20, 01:19:04,VALID,998.631,VALID,0,VALID,92.8372,VALID,0,VALID,24.1677,VALID,142,VALID,0,
2012-04-20, 01:20:04,VALID,998.613,VALID,0,VALID,92.8983,VALID,0,VALID,24.1872,VALID,142,VALID,0,
2012-04-20, 01:21:04,VALID,998.606,VALID,0,VALID,92.9135,VALID,0,VALID,24.1891,VALID,142,VALID,0,
2012-04-20, 01:22:04,VALID,998.584,VALID,0,VALID,93.0051,VALID,0,VALID,24.1696,VALID,142,VALID,0,
2012-04-20, 01:23:04,VALID,998.595,VALID,0,VALID,93.0661,VALID,0,VALID,24.1696,VALID,142,VALID,0,
2012-04-20, 01:24:04,VALID,998.609,VALID,0,VALID,93.0432,VALID,0,VALID,24.1305,VALID,115,VALID,0,
2012-04-20, 01:25:04,VALID,998.642,VALID,0,VALID,93.1119,VALID,0,VALID,24.111,VALID,115,VALID,0,
2012-04-20, 01:26:04,VALID,998.642,VALID,0,VALID,93.1348,VALID,0,VALID,24.0525,VALID,115,VALID,0,
2012-04-20, 01:27:04,VALID,998.688,VALID,0,VALID,93.2111,VALID,0,VALID,24.0116,VALID,115,VALID,0,
2012-04-20, 01:28:04,VALID,998.726,VALID,0,VALID,93.3331,VALID,0,VALID,23.9921,VALID,75,VALID,0.071875,
2012-04-20, 01:29:04,VALID,998.746,VALID,0,VALID,93.5163,VALID,0,VALID,24.0134,VALID,67,VALID,0.887891,
2012-04-20, 01:30:04,VALID,998.794,VALID,0,VALID,93.6612,VALID,0,VALID,23.9939,VALID,67,VALID,0.873438,
2012-04-20, 01:31:04,VALID,998.796,VALID,0,VALID,93.7528,VALID,0,VALID,23.9921,VALID,67,VALID,0.85,
2012-04-20, 01:32:04,VALID,998.784,VALID,0,VALID,93.8138,VALID,0,VALID,24.0134,VALID,67,VALID,0.753125,
2012-04-20, 01:33:04,VALID,998.814,VALID,0,VALID,93.7909,VALID,0,VALID,23.9921,VALID,67,VALID,0.783594,
2012-04-20, 01:34:04,VALID,998.806,VALID,0,VALID,93.7146,VALID,0,VALID,23.9726,VALID,31,VALID,1.07578,
2012-04-20, 01:35:04,VALID,998.81,VALID,0,VALID,93.6841,VALID,0,VALID,23.9336,VALID,31,VALID,1.17227,
2012-04-20, 01:36:04,VALID,998.802,VALID,0,VALID,93.6917,VALID,0,VALID,23.914,VALID,31,VALID,1.10938,
2012-04-20, 01:37:04,VALID,998.792,VALID,0,VALID,93.7757,VALID,0,VALID,23.914,VALID,31,VALID,0.932422,
2012-04-20, 01:38:04,VALID,998.784,VALID,0,VALID,93.8138,VALID,0,VALID,23.8945,VALID,31,VALID,0.869531,
2012-04-20, 01:39:04,VALID,998.816,VALID,0,VALID,93.9206,VALID,0,VALID,23.9354,VALID,31,VALID,0.677734,
2012-04-20, 01:40:04,VALID,998.804,VALID,0,VALID,93.9817,VALID,0,VALID,23.914,VALID,31,VALID,0.730078,
2012-04-20, 01:41:04,VALID,998.858,VALID,0,VALID,93.9664,VALID,0,VALID,23.914,VALID,31,VALID,0.703906,
2012-04-20, 01:42:04,VALID,998.881,VALID,0,VALID,93.9054,VALID,0,VALID,23.9354,VALID,31,VALID,0.991016,
2012-04-20, 01:43:04,VALID,998.864,VALID,0,VALID,93.8596,VALID,0,VALID,23.875,VALID,31,VALID,1.0207,
2012-04-20, 01:44:04,VALID,998.851,VALID,0,VALID,93.8825,VALID,0,VALID,23.8555,VALID,31,VALID,1.00781,
2012-04-20, 01:45:04,VALID,998.876,VALID,0,VALID,93.8367,VALID,0,VALID,23.8165,VALID,31,VALID,1.30156,
2012-04-20, 01:46:04,VALID,998.82,VALID,0,VALID,93.8977,VALID,0,VALID,23.8183,VALID,31,VALID,1.18711,
2012-04-20, 01:47:04,VALID,998.815,VALID,0,VALID,94.1037,VALID,0,VALID,23.797,VALID,35,VALID,1.4543,
2012-04-20, 01:48:04,VALID,998.811,VALID,0,VALID,94.2716,VALID,0,VALID,23.8573,VALID,44,VALID,1.41914,
2012-04-20, 01:49:04,VALID,998.803,VALID,0,VALID,94.3555,VALID,0.104696,VALID,23.8555,VALID,49,VALID,1.40273,
2012-04-20, 01:50:04,VALID,998.848,VALID,0,VALID,94.386,VALID,0,VALID,23.8555,VALID,42,VALID,1.47383,
2012-04-20, 01:51:04,VALID,998.837,VALID,0,VALID,94.386,VALID,0,VALID,23.8555,VALID,43,VALID,1.85352,
2012-04-20, 01:52:04,VALID,998.899,VALID,0,VALID,94.3479,VALID,0,VALID,23.8573,VALID,36,VALID,1.63516,
2012-04-20, 01:53:04,VALID,998.912,VALID,0,VALID,94.3403,VALID,0,VALID,23.797,VALID,39,VALID,1.49688,
2012-04-20, 01:54:04,VALID,998.872,VALID,0,VALID,94.3326,VALID,0,VALID,23.797,VALID,43,VALID,1.24102,
2012-04-20, 01:55:04,VALID,998.867,VALID,0,VALID,94.3631,VALID,0,VALID,23.7775,VALID,36,VALID,1.06602,
2012-04-20, 01:56:04,VALID,998.843,VALID,0,VALID,94.3937,VALID,0,VALID,23.7579,VALID,36,VALID,0.891797,
2012-04-20, 01:57:04,VALID,998.862,VALID,0,VALID,94.386,VALID,0,VALID,23.7579,VALID,36,VALID,0.610937,
2012-04-20, 01:58:04,VALID,998.894,VALID,0,VALID,94.3937,VALID,0,VALID,23.7597,VALID,36,VALID,0.35,
2012-04-20, 01:59:04,VALID,998.92,VALID,0,VALID,94.4013,VALID,0,VALID,23.7384,VALID,36,VALID,0.383203,
2012-04-20, 02:00:04,VALID,998.99,VALID,0,VALID,94.4089,VALID,0,VALID,23.7384,VALID,36,VALID,0.245703,
2012-04-20, 02:01:04,VALID,999.02,VALID,0,VALID,94.4089,VALID,0,VALID,23.7402,VALID,36,VALID,0.108594,
2012-04-20, 02:02:04,VALID,999.048,VALID,0,VALID,94.4471,VALID,0,VALID,23.7189,VALID,36,VALID,0.373047,
2012-04-20, 02:03:04,VALID,999.059,VALID,0,VALID,94.5157,VALID,0,VALID,23.7189,VALID,36,VALID,0.558594,
2012-04-20, 02:04:04,VALID,999.079,VALID,0,VALID,94.5386,VALID,0,VALID,23.7384,VALID,36,VALID,0.465625,
2012-04-20, 02:05:04,VALID,999.084,VALID,0,VALID,94.5691,VALID,0,VALID,23.7793,VALID,36,VALID,0.239063,
2012-04-20, 02:06:04,VALID,999.029,VALID,0,VALID,94.5844,VALID,0,VALID,23.7988,VALID,36,VALID,0.0949219,
2012-04-20, 02:07:04,VALID,999.057,VALID,0,VALID,94.6073,VALID,0,VALID,23.7988,VALID,36,VALID,0,
2012-04-20, 02:08:04,VALID,999.034,VALID,0,VALID,94.5997,VALID,0,VALID,23.7988,VALID,36,VALID,0.5625,
2012-04-20, 02:09:04,VALID,999.039,VALID,0,VALID,94.6607,VALID,0,VALID,23.8165,VALID,104,VALID,0.875391,
2012-04-20, 02:10:04,VALID,999.057,VALID,0,VALID,94.6836,VALID,0,VALID,23.8963,VALID,109,VALID,0.957031,
2012-04-20, 02:11:04,VALID,999.051,VALID,0,VALID,94.7065,VALID,0,VALID,23.9159,VALID,124,VALID,1.12891,
2012-04-20, 02:12:04,VALID,999.058,VALID,0,VALID,94.7065,VALID,0,VALID,23.9549,VALID,130,VALID,0.927344,
2012-04-20, 02:13:04,VALID,999.038,VALID,0,VALID,94.7065,VALID,0,VALID,23.9726,VALID,137,VALID,0.942578,
2012-04-20, 02:14:04,VALID,999.022,VALID,0,VALID,94.6836,VALID,0,VALID,23.9921,VALID,140,VALID,0.896484,
2012-04-20, 02:15:04,VALID,998.997,VALID,0,VALID,94.6607,VALID,0,VALID,24.0311,VALID,140,VALID,1.03086,
2012-04-20, 02:16:04,VALID,999.021,VALID,0,VALID,94.6149,VALID,0,VALID,24.072,VALID,127,VALID,0.767187,
2012-04-20, 02:17:04,VALID,998.999,VALID,0,VALID,94.5386,VALID,0,VALID,24.0897,VALID,127,VALID,0.671875,
2012-04-20, 02:18:04,VALID,999.023,VALID,0,VALID,94.531,VALID,0,VALID,24.1287,VALID,127,VALID,0.430859,
2012-04-20, 02:19:04,VALID,998.998,VALID,0,VALID,94.4928,VALID,0,VALID,24.1482,VALID,100,VALID,0.591016,
2012-04-20, 02:20:04,VALID,999.007,VALID,0,VALID,94.4776,VALID,0,VALID,24.1872,VALID,95,VALID,0.907812,
2012-04-20, 02:21:04,VALID,999.064,VALID,0,VALID,94.4928,VALID,0,VALID,24.2263,VALID,79,VALID,0.957422,
2012-04-20, 02:22:04,VALID,999.063,VALID,0,VALID,94.47,VALID,0,VALID,24.2458,VALID,77,VALID,0.937891,
2012-04-20, 02:23:04,VALID,999.078,VALID,0,VALID,94.4318,VALID,0,VALID,24.2866,VALID,45,VALID,1.04961,
2012-04-20, 02:24:04,VALID,999.091,VALID,0,VALID,94.386,VALID,0,VALID,24.2848,VALID,15,VALID,1.55195,
2012-04-20, 02:25:04,VALID,999.105,VALID,0,VALID,94.3708,VALID,0,VALID,24.3043,VALID,4,VALID,1.75508,
2012-04-20, 02:26:04,VALID,999.087,VALID,0,VALID,94.3631,VALID,0,VALID,24.3062,VALID,11,VALID,1.95234,
2012-04-20, 02:27:04,VALID,999.057,VALID,0,VALID,94.3708,VALID,0,VALID,24.3062,VALID,350,VALID,2.35586,
2012-04-20, 02:28:04,VALID,999.072,VALID,0,VALID,94.2487,VALID,0,VALID,24.3433,VALID,38,VALID,1.92773,
2012-04-20, 02:29:04,VALID,999.045,VALID,0,VALID,94.0045,VALID,0,VALID,24.4019,VALID,41,VALID,1.23438,
2012-04-20, 02:30:04,VALID,999.07,VALID,0,VALID,93.7146,VALID,0,VALID,24.4623,VALID,39,VALID,1.27461,
2012-04-20, 02:31:04,VALID,999.035,VALID,0,VALID,93.4934,VALID,0,VALID,24.4818,VALID,41,VALID,0.816797,
2012-04-20, 02:32:04,VALID,999.057,VALID,0,VALID,93.4094,VALID,0,VALID,24.4995,VALID,35,VALID,1.37852,
2012-04-20, 02:33:04,VALID,999.091,VALID,0,VALID,93.3103,VALID,0,VALID,24.4995,VALID,35,VALID,1.33711,
2012-04-20, 02:34:04,VALID,999.081,VALID,0.5,VALID,93.3408,VALID,0,VALID,24.4995,VALID,15,VALID,1.63477,
2012-04-20, 02:35:04,VALID,999.112,VALID,0,VALID,93.5544,VALID,0,VALID,24.5013,VALID,349,VALID,1.70391,
2012-04-20, 02:36:04,VALID,999.104,VALID,0.5,VALID,93.7909,VALID,0,VALID,24.4409,VALID,348,VALID,1.42852,
2012-04-20, 02:37:04,VALID,999.091,VALID,0,VALID,93.9588,VALID,0,VALID,24.3824,VALID,342,VALID,1.74336,
2012-04-20, 02:38:04,VALID,999.099,VALID,0,VALID,94.0885,VALID,0,VALID,24.3842,VALID,339,VALID,1.43672,
2012-04-20, 02:39:04,VALID,999.114,VALID,0,VALID,94.2487,VALID,0,VALID,24.3647,VALID,359,VALID,1.19492,
2012-04-20, 02:40:04,VALID,999.09,VALID,0,VALID,94.3326,VALID,0,VALID,24.3238,VALID,358,VALID,0.860547,
2012-04-20, 02:41:04,VALID,999.111,VALID,0,VALID,94.4165,VALID,0,VALID,24.3257,VALID,346,VALID,1.0707,
2012-04-20, 02:42:04,VALID,999.117,VALID,0,VALID,94.4013,VALID,0,VALID,24.3043,VALID,348,VALID,1.3625,
2012-04-20, 02:43:04,VALID,999.113,VALID,0,VALID,94.4394,VALID,0,VALID,24.3238,VALID,339,VALID,1.30742,
2012-04-20, 02:44:04,VALID,999.101,VALID,0,VALID,94.4547,VALID,0,VALID,24.3238,VALID,332,VALID,1.3375,
2012-04-20, 02:45:04,VALID,999.098,VALID,0,VALID,94.4318,VALID,0,VALID,24.3238,VALID,336,VALID,1.15234,
2012-04-20, 02:46:04,VALID,999.098,VALID,0,VALID,94.4165,VALID,0,VALID,24.3257,VALID,331,VALID,1.27734,
2012-04-20, 02:47:04,VALID,999.083,VALID,0,VALID,94.4013,VALID,0,VALID,24.3257,VALID,326,VALID,1.45313,
2012-04-20, 02:48:04,VALID,999.089,VALID,0,VALID,94.3479,VALID,0,VALID,24.2848,VALID,325,VALID,1.50547,
2012-04-20, 02:49:04,VALID,999.054,VALID,0.5,VALID,94.325,VALID,0,VALID,24.3062,VALID,322,VALID,1.82773,
2012-04-20, 02:50:04,VALID,999.074,VALID,0,VALID,94.2868,VALID,0,VALID,24.2653,VALID,312,VALID,1.19766,
2012-04-20, 02:51:04,VALID,999.047,VALID,0,VALID,94.3021,VALID,0,VALID,24.2671,VALID,325,VALID,1.41602,
2012-04-20, 02:52:04,VALID,999.026,VALID,0,VALID,94.2716,VALID,0,VALID,24.2476,VALID,332,VALID,1.92305,
2012-04-20, 02:53:04,VALID,999.025,VALID,0,VALID,94.2411,VALID,0,VALID,24.2067,VALID,342,VALID,1.97031,
2012-04-20, 02:54:04,VALID,999.003,VALID,0,VALID,94.2182,VALID,0,VALID,24.2263,VALID,332,VALID,1.37422,
2012-04-20, 02:55:04,VALID,998.979,VALID,0,VALID,94.2334,VALID,0,VALID,24.2281,VALID,336,VALID,1.37305,
2012-04-20, 02:56:04,VALID,998.951,VALID,0,VALID,94.2487,VALID,0,VALID,24.2086,VALID,316,VALID,1.09648,
2012-04-20, 02:57:04,VALID,998.95,VALID,0,VALID,94.2563,VALID,0,VALID,24.2086,VALID,326,VALID,1.21094,
2012-04-20, 02:58:04,VALID,998.931,VALID,0,VALID,94.2258,VALID,0,VALID,24.1677,VALID,332,VALID,1.25039,
2012-04-20, 02:59:04,VALID,998.894,VALID,0,VALID,94.2258,VALID,0,VALID,24.1891,VALID,329,VALID,1.58203,
2012-04-20, 03:00:04,VALID,998.861,VALID,0,VALID,94.2334,VALID,0,VALID,24.1696,VALID,322,VALID,0.89375,
2012-04-20, 03:01:04,VALID,998.84,VALID,0,VALID,94.18,VALID,0,VALID,24.15,VALID,343,VALID,1.96406,
2012-04-20, 03:02:04,VALID,998.817,VALID,0,VALID,94.0732,VALID,0,VALID,24.1305,VALID,330,VALID,1.37344,
2012-04-20, 03:03:04,VALID,998.795,VALID,0,VALID,93.974,VALID,0,VALID,24.1305,VALID,331,VALID,1.08125,
2012-04-20, 03:04:04,VALID,998.804,VALID,0,VALID,93.9283,VALID,0,VALID,24.111,VALID,333,VALID,1.14375,
2012-04-20, 03:05:04,VALID,998.79,VALID,0,VALID,93.8443,VALID,0,VALID,24.0915,VALID,344,VALID,1.43984,
2012-04-20, 03:06:04,VALID,998.781,VALID,0,VALID,93.6917,VALID,0,VALID,24.072,VALID,314,VALID,0.98125,
2012-04-20, 03:07:04,VALID,998.78,VALID,0,VALID,93.6688,VALID,0,VALID,24.072,VALID,319,VALID,0.845703,
2012-04-20, 03:08:04,VALID,998.787,VALID,0,VALID,93.6154,VALID,0,VALID,24.0311,VALID,326,VALID,0.1,
2012-04-20, 03:09:04,VALID,998.792,VALID,0,VALID,93.6612,VALID,0,VALID,24.0311,VALID,326,VALID,0,
2012-04-20, 03:10:04,VALID,998.772,VALID,0,VALID,93.6994,VALID,0,VALID,24.0116,VALID,326,VALID,0,
2012-04-20, 03:11:04,VALID,998.825,VALID,0,VALID,93.707,VALID,0,VALID,23.9921,VALID,326,VALID,0,
2012-04-20, 03:12:04,VALID,998.82,VALID,0,VALID,93.7299,VALID,0,VALID,23.9939,VALID,326,VALID,0,
2012-04-20, 03:13:04,VALID,998.826,VALID,0,VALID,93.7528,VALID,0,VALID,23.9744,VALID,326,VALID,0,
2012-04-20, 03:14:04,VALID,998.83,VALID,0,VALID,93.7375,VALID,0,VALID,23.9549,VALID,326,VALID,0,
2012-04-20, 03:15:04,VALID,998.822,VALID,0,VALID,93.7375,VALID,0,VALID,23.9549,VALID,43,VALID,0.585547,
2012-04-20, 03:16:04,VALID,998.799,VALID,0,VALID,93.7223,VALID,0,VALID,23.9354,VALID,43,VALID,0.596484,
2012-04-20, 03:17:04,VALID,998.814,VALID,0,VALID,93.7375,VALID,0,VALID,23.9354,VALID,43,VALID,0.496484,
2012-04-20, 03:18:04,VALID,998.776,VALID,0,VALID,93.7299,VALID,0,VALID,23.9354,VALID,43,VALID,0.279297,
2012-04-20, 03:19:04,VALID,998.77,VALID,0,VALID,93.707,VALID,0,VALID,23.8963,VALID,43,VALID,0.308984,
2012-04-20, 03:20:04,VALID,998.792,VALID,0,VALID,93.7146,VALID,0,VALID,23.8963,VALID,43,VALID,0.401953,
2012-04-20, 03:21:04,VALID,998.776,VALID,0,VALID,93.768,VALID,0,VALID,23.8963,VALID,43,VALID,0.701953,
2012-04-20, 03:22:04,VALID,998.739,VALID,0,VALID,93.8138,VALID,0,VALID,23.8768,VALID,43,VALID,0.686328,
2012-04-20, 03:23:04,VALID,998.72,VALID,0,VALID,93.8672,VALID,0,VALID,23.8555,VALID,43,VALID,0.882813,
2012-04-20, 03:24:04,VALID,998.68,VALID,0,VALID,93.8748,VALID,0,VALID,23.8555,VALID,43,VALID,0.935938,
2012-04-20, 03:25:04,VALID,998.655,VALID,0,VALID,93.8596,VALID,0,VALID,23.8573,VALID,43,VALID,0.991406,
2012-04-20, 03:26:04,VALID,998.599,VALID,0,VALID,93.8672,VALID,0,VALID,23.8573,VALID,30,VALID,0.946484,
2012-04-20, 03:27:04,VALID,998.576,VALID,0,VALID,93.8596,VALID,0,VALID,23.8378,VALID,27,VALID,1.02969,
2012-04-20, 03:28:04,VALID,998.552,VALID,0,VALID,93.9283,VALID,0,VALID,23.8165,VALID,27,VALID,0.795313,
2012-04-20, 03:29:04,VALID,998.535,VALID,0,VALID,93.9283,VALID,0,VALID,23.8378,VALID,27,VALID,0.827344,
2012-04-20, 03:30:04,VALID,998.537,VALID,0,VALID,93.9359,VALID,0,VALID,23.8378,VALID,25,VALID,0.749219,
2012-04-20, 03:31:04,VALID,998.563,VALID,0,VALID,93.974,VALID,0,VALID,23.797,VALID,341,VALID,0.814453,
2012-04-20, 03:32:04,VALID,998.561,VALID,0,VALID,94.0427,VALID,0,VALID,23.7988,VALID,341,VALID,0.830469,
2012-04-20, 03:33:04,VALID,998.606,VALID,0,VALID,94.0961,VALID,0,VALID,23.8183,VALID,341,VALID,0.749219,
2012-04-20, 03:34:04,VALID,998.615,VALID,0,VALID,94.1114,VALID,0,VALID,23.8183,VALID,349,VALID,0.845312,
2012-04-20, 03:35:04,VALID,998.62,VALID,0,VALID,94.1266,VALID,0,VALID,23.7988,VALID,351,VALID,0.632031,
2012-04-20, 03:36:04,VALID,998.64,VALID,0,VALID,94.1343,VALID,0,VALID,23.7988,VALID,351,VALID,0.537109,
2012-04-20, 03:37:04,VALID,998.636,VALID,0,VALID,94.0961,VALID,0,VALID,23.7793,VALID,351,VALID,0.406641,
2012-04-20, 03:38:04,VALID,998.656,VALID,0,VALID,94.0808,VALID,0,VALID,23.7616,VALID,34,VALID,0.712109,
2012-04-20, 03:39:04,VALID,998.681,VALID,0,VALID,94.1037,VALID,0,VALID,23.7597,VALID,57,VALID,1.19141,
2012-04-20, 03:40:04,VALID,998.703,VALID,0,VALID,94.1495,VALID,0,VALID,23.7597,VALID,51,VALID,1.32109,
2012-04-20, 03:41:04,VALID,998.743,VALID,0,VALID,94.1953,VALID,0,VALID,23.7402,VALID,51,VALID,1.51875,
2012-04-20, 03:42:04,VALID,998.762,VALID,0,VALID,94.2563,VALID,0,VALID,23.7402,VALID,54,VALID,1.23398,
2012-04-20, 03:43:04,VALID,998.765,VALID,0,VALID,94.3326,VALID,0,VALID,23.7402,VALID,48,VALID,1.32305,
2012-04-20, 03:44:04,VALID,998.776,VALID,0,VALID,94.3479,VALID,0,VALID,23.7207,VALID,42,VALID,0.846484,
2012-04-20, 03:45:04,VALID,998.762,VALID,0,VALID,94.386,VALID,0,VALID,23.7402,VALID,28,VALID,1.26563,
2012-04-20, 03:46:04,VALID,998.79,VALID,0,VALID,94.3403,VALID,0,VALID,23.7207,VALID,20,VALID,1.46289,
2012-04-20, 03:47:04,VALID,998.83,VALID,0,VALID,94.2487,VALID,0,VALID,23.7207,VALID,29,VALID,1.12188,
2012-04-20, 03:48:04,VALID,998.82,VALID,0,VALID,94.1953,VALID,0,VALID,23.7207,VALID,25,VALID,1.00703,